CAPE
0 0 0 0 0 0 0 1 7 11 130 171 100 31 279 521 460 394 427 453 284 179 237 620 859 889 924 1266 1452 1518 1553 1620 1935 1922 1576 1366 1184 1276 1600 1483 1439 1645 1774 1608
0 0 0 0 0 0 0 0 16 68 151 136 119 108 93 225 480 366 353 452 518 262 300 623 879 979 998 1235 1492 1729 1827 1945 2201 1908 1616 1496 1319 1230 1419 1732 1625 1944 1748 1722
0 0 0 0 0 0 0 0 1 48 130 146 86 116 123 77 229 401 358 249 516 405 354 446 608 862 994 1161 1499 1678 1991 2118 2323 2090 1993 2076 2037 1894 1669 1271 1302 1372 1869 1854
0 0 0 0 0 0 0 0 0 49 85 47 90 22 19 34 73 267 463 306 225 471 532 514 567 692 939 1036 1313 1709 2001 2253 2391 2465 1888 1898 1448 900 596 683 472 602 1466 1190
0 0 0 0 0 0 0 0 0 34 52 81 99 48 30 59 95 170 443 443 145 115 212 428 453 444 711 906 1100 1421 1953 2270 2300 2332 2251 1921 1897 1013 908 881 800 840 1142 1119
0 0 0 0 0 0 0 0 0 3 64 71 68 62 4 15 82 80 171 403 276 69 72 84 120 239 495 739 941 1124 1655 2250 2420 2341 2429 2190 1746 1513 943 1113 680 535 725 1051
0 0 0 0 0 0 0 0 0 7 14 28 49 25 0 0 3 26 18 190 372 99 55 69 84 93 309 583 762 954 1497 2129 2367 2257 2131 2313 2239 2111 1917 1824 717 158 335 212
0 0 0 0 0 0 0 0 0 5 5 9 11 0 0 10 3 0 18 58 228 306 78 66 94 184 314 583 872 1138 1456 1932 2216 2082 2056 2257 2369 2190 1958 1971 558 220 46 104
0 0 0 0 0 0 0 0 0 9 13 8 0 0 0 1 1 0 7 50 127 379 267 100 179 302 496 756 1126 1438 1717 1951 2074 1921 2095 2175 2377 2264 1594 1639 1750 540 288 127
0 0 0 0 0 0 0 0 0 0 5 5 0 1 0 0 0 0 0 27 94 198 373 272 172 400 612 839 1132 1452 1851 2016 1987 1865 1954 1939 2025 2246 2076 2220 1861 775 680 337
0 0 0 0 0 0 0 0 0 0 0 1 2 0 0 0 0 0 0 13 62 117 297 464 434 393 792 944 1130 1488 1711 1926 2023 1948 1935 1917 1795 1934 2256 2268 2007 1346 897 625
0 0 0 0 0 0 0 0 0 0 0 0 0 0 0 0 0 0 0 0 0 36 118 424 641 715 757 1027 1143 1443 1596 1759 1924 1922 2108 2013 1911 1872 1871 2291 1766 1065 678 517
0 0 0 0 0 0 0 0 0 0 0 1 0 0 0 0 0 0 0 0 2 139 128 384 604 875 1056 1148 1401 1406 1650 1709 1800 1977 2060 1986 1919 1912 1836 2013 1395 822 328 177
0 0 0 0 0 0 0 0 0 0 0 0 0 4 0 0 0 0 0 0 4 116 273 418 626 942 1301 1378 1680 1792 1606 1655 1790 1892 2062 2196 2156 2034 1624 1839 929 412 33 0
0 0 0 0 0 0 0 0 0 0 0 0 0 0 0 0 0 0 0 0 1 246 335 497 760 1038 1512 1630 1807 1937 1864 1853 1799 1949 2093 2246 2347 2214 1705 1441 820 401 42 0
0 0 0 0 0 0 0 0 0 0 0 0 0 0 0 0 0 0 0 0 0 149 507 562 943 1211 1644 1823 2079 2065 2025 1960 2027 2072 2198 2287 2557 2296 1751 1375 693 269 162 2
0 0 24 1 46 17 0 0 0 0 0 0 0 0 0 0 0 0 0 2 4 62 432 529 693 1227 1619 1909 2111 2162 2140 2087 2180 2285 2318 2445 2614 2173 1626 1173 704 478 226 24
42 25 32 34 116 67 0 0 0 0 0 0 0 0 0 0 0 0 0 18 35 112 333 751 865 1143 1630 1619 1760 1841 1946 2094 2247 2448 2482 2519 2462 2074 1384 1025 740 631 289 8
0 109 60 66 99 71 31 123 24 0 0 0 0 0 0 0 0 0 0 33 94 215 479 989 942 1106 1379 1260 1505 1710 1688 1866 2032 2282 2463 2456 2213 1920 1310 1095 720 544 333 65
0 26 61 115 74 85 439 100 137 164 2 0 0 0 0 0 0 0 152 24 7 169 603 648 702 813 1005 1063 1233 1489 1571 1798 1961 2205 2340 2368 2139 1887 1503 1230 866 562 375 66
36 93 5 184 178 146 194 38 274 105 17 64 55 0 0 0 0 182 188 212 282 466 750 819 911 1042 1121 1034 1274 1386 1620 1757 1920 2106 2322 2396 2050 1906 1471 1285 1070 441 102 28
126 111 36 237 193 120 150 226 352 355 359 201 102 126 24 162 129 350 460 499 581 654 786 914 1033 1187 1326 1572 1777 1736 1777 2144 2247 2267 2342 2167 1637 1576 1493 1166 738 486 373 307
190 147 195 193 190 138 97 108 159 404 396 464 383 229 281 301 403 518 613 637 599 576 560 703 863 1057 1439 1717 1549 1031 1519 2029 1970 1858 1749 1363 1290 1208 1139 901 772 757 758 617
640 683 436 280 131 117 101 0 0 7 103 173 361 394 366 346 361 419 462 503 558 607 625 803 862 706 737 1097 1323 1338 1566 1759 1827 1264 1163 1131 1047 848 773 888 925 879 978 820
177 586 518 308 105 79 0 0 0 0 0 0 5 36 225 551 704 792 825 730 722 680 616 609 502 454 596 1086 1142 1261 1336 1521 1620 1461 1322 1235 1093 870 302 5 0 355 73 67
4 133 376 215 102 163 2 0 0 0 0 0 0 0 4 4 13 21 121 334 508 863 871 761 922 1062 1205 1491 1506 1435 1428 1495 1214 1135 1139 1004 673 354 288 191 2 0 0 0
CIN
-0 -0 -0 -0 -0 -0 -0 -1 -1 -2 -9 -32 -17 -27 -46 -48 -44 -32 -29 -56 -95 -101 -92 -92 -75 -65 -52 -21 -11 -7 -1 -0 -0 -1 -1 -1 -1 -1 -0 -1 -0 -0 -1 -0
-0 -0 -0 -0 -0 -0 -0 -0 -3 -2 -27 -35 -8 -18 -35 -49 -56 -48 -54 -64 -74 -83 -105 -82 -70 -58 -55 -32 -12 -1 -1 -0 -0 -1 -2 -1 -1 -1 -0 -1 -1 -0 -0 -0
-0 -0 -0 -0 -0 -0 -0 -0 -1 -2 -31 -37 -6 -13 -21 -52 -65 -63 -81 -93 -88 -99 -112 -111 -101 -74 -56 -44 -22 -6 -5 -1 -0 -1 -0 -0 -0 -1 -1 -0 -0 -1 -0 -0
-0 -0 -0 -0 -0 -0 -0 -0 -0 -4 -8 -5 -15 -5 -3 -30 -56 -76 -87 -99 -123 -132 -135 -104 -113 -108 -75 -68 -42 -18 -14 -8 -1 -1 -1 -1 -1 -5 -15 -22 -49 -45 -1 -5
-0 -0 -0 -0 -0 -0 -0 -0 -0 -2 -6 -3 -4 -3 -3 -19 -15 -35 -71 -94 -124 -132 -147 -142 -143 -158 -123 -87 -72 -52 -24 -15 -9 -0 -4 -1 -1 -13 -27 -43 -64 -61 -44 -39
-0 -0 -0 -0 -0 -0 -0 -0 -0 -5 -4 -5 -5 -4 -6 -3 -19 -19 -20 -56 -91 -124 -146 -162 -174 -178 -166 -135 -106 -96 -69 -31 -17 -11 -13 -8 -10 -20 -40 -53 -90 -99 -81 -58
-0 -0 -0 -0 -0 -0 -0 -0 -0 -5 -5 -4 -7 -5 -0 -1 -9 -19 -6 -29 -62 -85 -127 -145 -169 -185 -182 -173 -153 -140 -106 -68 -33 -37 -41 -25 -15 -3 -8 -14 -95 -135 -122 -156
-0 -0 -0 -0 -0 -0 -0 -0 -0 -5 -4 -5 -8 -0 -0 -69 -12 -0 -13 -15 -43 -80 -112 -145 -167 -175 -165 -163 -165 -155 -141 -116 -81 -80 -70 -37 -21 -11 -15 -13 -101 -140 -155 -164
-0 -0 -0 -0 -0 -0 -0 -0 -0 -5 -4 -3 -0 -0 -0 -15 -20 -0 -23 -29 -28 -55 -103 -134 -136 -177 -157 -146 -167 -177 -167 -146 -115 -117 -103 -83 -45 -32 -44 -32 -43 -119 -156 -160
-0 -0 -0 -0 -0 -0 -0 -0 -0 -0 -5 -6 -0 -1 -0 -0 -0 -0 -0 -20 -31 -54 -75 -94 -119 -148 -173 -139 -157 -169 -159 -160 -143 -124 -138 -127 -96 -59 -48 -33 -65 -130 -129 -164
-0 -0 -0 -0 -0 -0 -0 -0 -0 -0 -0 -3 -6 -0 -0 -0 -0 -0 -0 -11 -17 -29 -55 -84 -91 -131 -164 -150 -120 -155 -160 -160 -143 -148 -156 -147 -142 -110 -65 -57 -42 -106 -145 -162
-0 -0 -0 -0 -0 -0 -0 -0 -0 -0 -0 -0 -0 -0 -0 -0 -0 -0 -0 -0 -0 -17 -46 -77 -83 -99 -131 -164 -117 -128 -156 -164 -164 -162 -161 -169 -147 -132 -108 -72 -78 -157 -192 -186
-0 -0 -0 -0 -0 -0 -0 -0 -0 -0 -0 -0 -0 -0 -0 -0 -0 -0 -0 -7 -19 -78 -90 -89 -102 -123 -151 -161 -154 -131 -147 -130 -142 -140 -157 -166 -168 -165 -150 -97 -149 -194 -235 -271
-0 -0 -0 -0 -0 -0 -0 -0 -0 -0 -0 -0 -0 -5 -0 -0 -0 -0 -0 -0 -18 -63 -136 -143 -146 -156 -169 -171 -162 -163 -144 -118 -125 -134 -163 -162 -178 -156 -173 -112 -233 -275 -372 -0
-0 -0 -0 -0 -0 -0 -0 -0 -0 -0 -0 -0 -0 -0 -0 -0 -0 -0 -0 -0 -15 -65 -166 -184 -175 -181 -190 -197 -202 -199 -189 -165 -144 -167 -150 -146 -115 -105 -135 -164 -266 -328 -423 -0
-0 -0 -0 -0 -0 -0 -0 -0 -0 -0 -0 -0 -0 -0 -0 -0 -0 -0 -0 -0 -0 -56 -151 -178 -225 -202 -207 -206 -233 -230 -226 -231 -217 -169 -164 -121 -94 -121 -154 -190 -307 -409 -410 -138
-0 -0 -3 -1 -5 -6 -0 -0 -0 -0 -0 -0 -0 -0 -0 -0 -0 -0 -0 -19 -35 -41 -80 -147 -182 -203 -188 -214 -251 -260 -284 -255 -251 -222 -191 -169 -132 -174 -227 -268 -324 -344 -390 -514
-17 -19 -3 -5 -4 -3 -0 -0 -0 -0 -0 -0 -0 -0 -0 -0 -0 -0 -0 -72 -33 -45 -48 -131 -167 -196 -246 -255 -273 -296 -306 -302 -266 -246 -206 -163 -144 -172 -245 -284 -324 -302 -372 -366
-0 -7 -5 -4 -4 -5 -4 -16 -46 -0 -0 -0 -0 -0 -0 -0 -0 -0 -0 -129 -106 -87 -94 -111 -144 -186 -267 -272 -286 -305 -317 -320 -286 -261 -223 -180 -205 -233 -293 -284 -329 -291 -331 -436
-0 -44 -4 -4 -4 -2 -65 -209 -207 -213 -6 -0 -0 -0 -0 -0 -0 -0 -156 -188 -150 -229 -219 -244 -261 -285 -327 -318 -353 -346 -323 -301 -259 -222 -207 -205 -223 -225 -268 -301 -286 -271 -268 -403
-13 -2 -6 -5 -2 -20 -160 -253 -198 -92 -46 -224 -114 -0 -0 -0 -0 -173 -335 -330 -302 -322 -343 -369 -357 -329 -392 -391 -390 -351 -298 -236 -192 -180 -182 -178 -204 -201 -226 -300 -252 -311 -391 -409
-6 -3 -5 -5 -3 -6 -207 -162 -122 -208 -191 -230 -242 -152 -47 -84 -291 -294 -371 -434 -431 -442 -413 -376 -400 -399 -383 -335 -280 -240 -199 -165 -171 -176 -151 -150 -186 -165 -121 -212 -266 -230 -227 -193
-3 -3 -4 -1 -10 -168 -243 -325 -320 -199 -188 -179 -195 -244 -229 -203 -269 -333 -371 -425 -422 -426 -432 -428 -414 -408 -309 -245 -232 -213 -235 -211 -221 -225 -214 -251 -250 -162 -212 -173 -134 -66 -20 -44
-22 -18 -6 -72 -133 -146 -215 -0 -0 -170 -296 -248 -181 -159 -146 -212 -249 -319 -414 -405 -392 -390 -399 -364 -333 -334 -348 -327 -297 -317 -279 -241 -207 -277 -245 -202 -171 -231 -191 -86 -26 -9 -0 -1
-93 -78 -36 -38 -120 -89 -0 -0 -0 -0 -0 -41 -291 -325 -197 -144 -123 -203 -227 -301 -279 -351 -372 -350 -350 -362 -378 -307 -312 -313 -282 -211 -160 -147 -143 -100 -103 -153 -242 -114 -0 -17 -18 -42
-0 -133 -10 -7 -94 -87 -41 -0 -0 -0 -0 -0 -0 -29 -382 -444 -518 -554 -501 -338 -291 -170 -252 -245 -203 -183 -207 -186 -182 -191 -178 -115 -125 -139 -75 -52 -134 -197 -138 -96 -12 -0 -0 -0
Wind_Speed
13 21 31 26 34 41 23 10 24 29 7 8 31 31 19 25 28 29 30 29 29 29 27 27 27 25 23 20 16 17 19 17 14 14 18 19 20 15 13 14 14 10 8 7
16 25 26 31 24 28 38 11 16 17 19 27 31 33 31 27 30 29 30 30 31 29 27 26 26 26 25 22 21 20 20 18 15 13 17 21 12 13 12 6 7 7 6 6
27 22 25 17 17 20 23 34 14 12 21 29 30 34 34 33 29 29 28 29 29 30 28 26 26 26 24 22 23 23 21 20 19 22 13 5 6 5 6 6 6 7 7 8
31 26 25 26 21 18 19 22 33 21 22 39 22 35 17 12 10 6 16 18 24 23 24 23 23 23 22 21 20 21 21 18 17 16 16 11 8 7 7 9 10 10 9 9
29 29 28 31 25 21 19 23 28 32 29 38 17 35 34 17 12 7 12 13 15 19 20 19 22 22 22 19 18 18 17 16 16 13 14 8 7 4 6 8 9 9 9 9
28 26 33 36 33 38 37 28 24 29 32 48 45 28 39 22 19 18 5 12 14 15 15 19 19 17 18 18 18 16 15 14 14 12 10 9 4 4 4 6 7 8 8 8
25 27 28 31 34 36 33 26 29 37 38 48 30 46 27 22 16 17 15 12 17 17 18 21 22 20 20 19 17 17 14 15 14 13 11 10 9 8 6 4 5 6 7 7
27 38 32 28 37 33 36 30 31 33 38 37 44 43 36 31 38 35 24 20 12 19 21 23 23 23 24 23 23 20 16 16 15 14 13 14 13 10 8 6 4 4 4 5
26 36 22 33 32 36 37 46 40 42 34 45 40 31 44 34 33 35 32 5 9 16 20 23 23 26 23 23 23 22 20 16 15 15 17 15 14 15 12 9 4 1 2 5
23 30 28 26 31 38 43 39 43 47 50 47 47 41 27 24 20 22 18 5 11 13 16 19 22 23 23 24 23 24 25 25 22 23 22 23 21 17 15 8 9 2 1 2
25 25 23 30 39 40 39 45 46 47 48 50 46 46 35 29 21 23 21 11 8 5 11 14 19 22 23 25 24 26 28 29 29 26 24 20 19 18 16 14 5 3 2 2
23 24 31 29 29 37 39 41 42 49 48 48 56 50 36 43 36 41 38 30 25 22 11 9 14 18 20 24 24 26 29 30 27 23 19 20 19 17 16 13 10 12 4 5
20 30 30 33 28 32 45 44 45 44 47 52 52 52 31 25 28 31 30 30 27 24 18 12 11 18 19 19 22 26 25 24 22 20 19 17 17 16 15 14 13 10 8 5
20 28 33 34 31 31 37 43 49 49 55 53 60 43 41 41 44 40 34 33 34 27 23 14 10 17 16 15 20 23 21 18 17 16 15 14 14 14 13 14 13 12 11 9
24 31 28 34 38 32 39 41 44 55 60 58 51 50 41 42 34 40 38 35 32 31 26 11 11 15 13 13 15 14 15 13 11 10 11 11 9 10 11 12 13 13 12 12
26 33 34 40 37 38 45 45 45 48 54 59 60 60 39 38 53 49 48 43 40 34 25 12 12 11 12 12 12 10 10 9 8 8 9 7 6 7 8 10 12 12 13 14
29 31 29 33 27 32 39 42 45 47 49 52 59 53 45 47 43 43 47 45 40 36 25 16 14 15 13 11 9 9 8 7 6 6 6 6 6 6 6 6 7 9 12 14
27 31 30 35 27 36 33 33 39 44 45 47 50 44 41 43 36 34 39 42 40 40 29 23 22 17 15 12 10 8 9 7 6 5 4 4 3 3 3 4 5 6 7 10
33 29 32 36 34 36 27 22 27 37 48 43 45 42 40 36 33 42 38 36 37 37 30 23 20 15 13 12 11 10 8 6 6 4 3 3 3 2 3 6 7 7 8 8
32 33 37 27 35 36 24 28 31 32 44 38 39 37 36 32 39 40 30 33 33 30 22 19 15 13 12 11 10 9 9 6 5 4 2 2 3 5 6 7 7 6 7 8
29 31 34 31 33 27 25 29 22 28 33 34 38 41 37 38 35 26 24 22 24 21 15 14 11 10 8 8 8 7 7 7 4 3 4 6 8 10 12 10 6 6 6 7
29 29 32 29 31 29 25 23 24 27 31 31 32 32 34 26 20 18 16 15 14 12 8 8 7 6 5 5 6 6 7 6 5 7 9 12 13 11 12 10 7 8 7 6
30 31 27 32 29 22 23 22 20 24 23 20 14 13 12 12 10 9 10 9 8 7 5 5 5 3 2 4 5 7 7 5 7 9 13 13 10 11 13 11 9 10 10 10
22 21 22 20 17 16 15 14 14 14 12 10 7 2 3 7 7 5 6 6 5 5 3 2 2 3 5 6 10 7 7 10 10 12 14 13 12 13 10 12 11 11 10 11
22 24 19 17 8 6 9 9 10 7 6 5 4 2 2 4 4 3 3 3 2 2 2 3 5 6 8 9 10 9 9 9 10 10 11 10 12 13 13 14 15 15 14 13
22 23 23 19 8 13 11 12 11 7 7 5 4 1 1 1 1 1 3 5 3 7 5 7 9 9 8 9 9 9 9 9 10 11 10 10 12 11 10 11 12 16 16 15
Wind_Direction
195 181 183 178 184 209 255 262 248 229 264 218 188 212 255 224 192 190 183 177 179 179 174 173 173 170 169 166 160 161 165 161 154 152 162 172 183 169 164 177 184 164 148 142
229 194 182 239 242 216 215 184 168 251 253 235 229 215 226 238 200 194 187 184 185 182 176 175 175 175 175 173 172 170 171 167 162 153 163 181 151 161 161 63 122 116 101 78
244 247 243 222 217 193 187 193 176 245 253 246 246 232 228 225 215 198 189 188 185 187 182 179 180 180 178 177 176 176 173 171 168 176 152 98 102 42 66 91 68 54 48 41
250 246 238 241 225 213 202 199 246 252 251 217 248 222 270 274 269 202 174 174 180 180 182 181 181 182 181 179 176 176 175 169 167 163 163 149 124 100 46 25 28 32 44 45
246 242 242 240 234 227 217 253 254 251 251 239 253 236 245 278 277 195 187 184 181 179 179 179 180 181 181 178 177 176 174 172 169 163 165 151 144 73 58 42 34 55 51 62
253 253 247 245 242 239 238 255 256 255 251 220 221 250 234 263 274 283 231 195 189 184 180 178 176 175 179 179 180 180 180 179 173 170 169 170 152 130 77 64 61 71 71 77
250 250 248 245 239 237 236 238 246 246 247 228 246 231 223 275 276 288 293 189 187 186 183 179 178 174 174 178 182 182 187 184 179 178 178 176 173 160 144 97 91 63 65 71
250 247 241 244 236 230 233 230 244 246 249 252 241 240 209 262 258 264 287 284 179 183 185 184 181 180 179 178 178 180 183 184 183 183 182 174 171 167 163 151 120 96 63 37
255 255 243 245 243 234 234 237 244 252 258 251 251 259 244 260 266 263 257 195 177 181 186 185 185 186 184 182 182 183 184 190 192 189 181 181 178 178 170 163 157 84 54 21
267 263 249 244 244 241 241 241 240 245 247 248 246 251 262 265 268 273 277 253 183 183 184 187 189 188 186 184 185 185 186 185 184 183 183 184 183 182 182 185 173 166 31 15
254 263 258 247 237 237 237 243 241 247 246 248 249 247 249 259 270 270 274 288 278 214 194 195 194 190 187 186 184 185 184 185 186 186 186 187 189 189 190 192 202 245 189 175
242 259 258 258 247 245 242 243 242 243 246 251 250 249 260 246 257 252 251 270 279 284 281 221 193 188 188 188 186 183 185 187 187 187 188 192 194 197 200 205 206 196 222 186
242 251 256 255 251 249 244 242 244 245 251 248 250 249 261 261 258 253 257 262 283 288 283 272 202 186 189 189 187 186 186 189 190 190 192 195 201 209 215 214 219 223 227 232
264 252 250 253 254 250 247 248 246 247 247 251 250 258 253 253 247 253 259 265 275 279 282 279 212 182 189 191 186 187 188 190 191 194 201 206 210 214 221 224 224 230 232 230
252 254 259 259 261 261 254 250 249 248 249 250 255 255 256 255 258 255 261 268 276 272 275 267 211 184 191 189 189 197 195 201 211 219 216 214 227 225 229 228 230 232 230 226
253 255 259 261 262 263 259 257 254 252 252 253 254 255 259 260 252 253 251 261 266 268 272 267 230 210 199 193 190 201 210 221 233 222 214 227 230 243 244 237 237 234 232 231
247 250 257 262 267 267 261 258 257 257 252 252 251 256 257 258 261 260 256 257 261 263 268 262 226 218 218 219 217 215 221 229 226 229 228 221 233 246 244 239 238 238 236 236
249 249 254 257 268 265 274 271 262 261 258 254 256 259 256 256 259 261 260 256 259 259 267 263 255 249 241 236 229 224 232 198 208 230 215 198 233 270 273 261 268 267 258 244
245 248 253 256 261 271 280 290 278 266 259 259 257 257 257 257 258 258 257 258 260 258 260 258 252 245 234 233 232 233 232 221 202 217 216 235 198 233 283 296 290 279 267 260
240 246 250 259 260 265 279 287 279 279 263 262 259 255 253 254 257 259 255 257 258 257 253 251 245 236 225 228 224 229 234 235 202 200 228 253 288 293 292 313 300 284 279 277
231 238 244 254 262 270 279 287 291 271 270 275 266 254 251 253 259 264 259 254 253 252 244 242 236 218 209 207 208 216 225 247 243 272 289 298 305 304 302 311 306 296 296 291
229 235 244 253 258 266 280 289 281 286 284 280 268 258 251 250 251 253 252 245 241 233 218 219 215 208 197 193 216 236 259 280 288 299 308 313 313 320 322 321 316 302 300 283
232 240 249 253 264 277 288 295 295 287 285 299 293 268 246 230 220 225 221 222 220 218 199 182 174 198 256 272 270 268 287 293 300 299 304 306 310 304 319 321 319 310 308 306
243 246 252 257 279 283 293 307 299 291 296 308 312 332 219 204 216 199 203 201 202 210 208 202 225 264 282 296 300 321 316 306 308 310 311 313 315 328 324 318 318 317 319 318
246 248 250 259 266 298 308 312 305 309 295 330 20 34 233 200 211 171 185 166 240 225 276 305 296 294 293 311 318 324 325 321 319 323 324 324 325 328 323 327 332 330 334 333
258 247 245 252 241 276 262 280 271 267 268 291 343 312 323 355 327 357 298 292 291 274 292 297 298 303 316 317 325 330 337 333 329 326 334 333 333 330 328 327 328 334 333 329